RH
78 83 90 93 94 90 90 92 92 90 96 94 96 88 85 84 81 79 78 77 72 78 80 79 76 74 76 71 69 80 80 74
77 81 90 93 93 90 92 93 91 88 90 91 93 86 88 80 75 72 79 76 73 76 78 75 74 74 79 74 74 72 80 79
83 87 89 92 90 90 93 88 88 83 76 79 76 79 79 77 76 76 76 73 72 73 71 72 73 71 71 78 75 84 82 80
82 85 87 88 88 88 86 85 84 81 76 75 78 80 76 76 80 78 70 65 58 57 62 67 66 68 69 78 81 77 80 73
76 82 85 88 87 84 84 82 83 83 74 70 63 71 71 77 81 64 55 59 60 59 65 71 74 79 83 81 80 84 80 77
72 78 75 78 83 85 90 85 85 82 72 67 74 85 86 84 68 56 62 66 64 66 69 74 82 86 80 76 74 78 78 82
65 75 78 79 88 91 95 89 85 88 79 79 77 84 85 76 70 67 69 70 72 70 71 81 83 81 78 76 76 78 80 81
70 80 80 81 86 88 93 91 88 93 89 86 82 80 75 72 66 72 71 72 73 69 71 77 82 79 81 78 81 85 86 85
62 66 76 78 83 86 88 91 90 93 91 89 85 79 73 66 58 59 62 55 67 69 62 65 76 76 78 81 85 86 89 91
66 63 72 79 84 84 88 88 86 94 92 93 88 86 81 72 70 62 60 58 58 64 61 64 75 73 77 85 86 85 89 92
77 76 78 80 81 80 90 88 83 86 90 88 86 84 80 79 69 68 59 62 63 62 63 63 65 67 71 80 86 87 89 90
88 85 85 84 85 91 91 91 87 86 88 90 91 86 83 75 66 63 59 60 58 60 61 63 63 64 65 68 74 74 73 74
90 91 91 93 91 93 91 88 81 87 88 87 87 84 73 65 64 57 58 58 61 59 61 60 61 64 67 71 72 68 75 78
89 90 93 92 88 86 87 87 84 82 84 87 84 76 67 59 56 58 60 60 61 60 60 61 62 64 66 73 75 75 78 80
87 90 90 88 84 87 88 90 86 84 84 80 82 79 68 62 59 68 67 62 62 61 61 62 63 62 67 69 71 77 79 80
79 82 88 88 89 87 86 90 90 86 83 80 80 79 74 73 70 65 67 66 60 60 63 63 71 78 61 71 74 77 79 81
64 65 65 68 79 89 89 88 83 81 81 79 78 78 74 78 77 70 72 65 63 64 68 84 90 66 72 77 79 80 77 79
59 61 65 74 82 81 87 89 83 81 80 77 79 82 81 78 68 68 70 74 79 88 90 88 79 75 76 81 84 89 83 75
64 66 70 78 91 91 87 82 82 81 83 83 80 77 76 70 72 75 83 87 92 94 92 84 78 70 79 82 85 92 84 78
Wind_Speed
9 9 8 8 7 7 7 6 7 7 5 4 4 4 3 3 4 4 6 5 6 6 5 5 4 4 4 3 3 4 3 2
8 9 8 7 7 7 8 8 7 7 4 4 3 4 2 2 3 5 6 5 6 6 4 5 4 5 3 3 3 4 3 2
8 8 9 10 10 9 8 9 11 9 7 3 4 4 2 3 3 4 5 6 6 6 6 5 6 4 4 3 2 3 3 3
11 11 10 9 11 12 12 11 11 9 7 5 4 4 4 3 2 3 3 6 6 7 7 6 5 4 4 3 3 5 4 2
12 15 12 10 10 9 9 10 13 9 10 7 11 8 7 4 4 4 4 6 6 6 7 6 6 4 5 4 2 3 4 3
16 17 17 14 11 11 10 9 10 10 12 10 8 5 4 4 4 8 6 5 5 6 6 6 6 4 5 5 6 5 3 3
13 10 9 11 8 9 9 11 12 9 12 10 12 12 9 8 5 5 4 3 4 5 6 6 6 6 5 4 4 5 4 4
11 14 14 12 15 14 11 12 12 8 11 11 11 11 12 13 12 9 8 5 4 6 5 4 1 4 5 5 4 4 4 3
17 18 16 16 15 14 13 14 12 12 12 12 10 9 7 8 12 10 9 8 7 7 8 8 7 6 6 4 4 4 5 4
13 13 15 14 13 17 17 15 14 11 13 9 10 12 12 11 10 9 7 7 7 8 6 7 7 6 6 6 3 3 4 4
8 9 11 12 13 14 11 13 16 12 11 9 8 9 10 9 10 10 10 8 8 9 7 6 5 4 5 5 4 4 5 4
7 8 8 10 8 9 12 11 9 8 8 7 7 7 8 9 10 10 10 11 11 8 7 6 6 5 5 5 6 6 6 5
6 5 5 6 9 4 7 6 8 9 9 10 9 7 9 10 9 11 11 11 8 6 7 7 5 6 6 7 7 6 7 7
6 6 7 5 5 4 5 6 6 7 8 8 9 10 12 12 11 10 10 8 6 6 8 7 6 6 5 6 7 7 7 7
5 3 2 6 6 6 4 5 5 6 8 10 12 13 12 11 9 7 7 7 10 8 6 5 6 3 6 7 7 7 7 7
0 2 4 4 5 6 7 7 7 9 9 8 6 5 6 5 7 7 8 8 7 5 6 6 1 3 5 7 6 7 7 7
8 7 6 2 5 6 6 7 9 11 10 9 7 6 6 6 7 6 6 4 5 5 3 2 3 5 9 11 10 7 8 7
8 8 6 7 6 1 2 4 5 4 3 4 6 7 8 8 10 11 9 7 5 3 3 2 6 6 11 12 12 6 7 9
8 7 7 9 7 7 6 6 6 7 7 8 8 10 10 10 9 8 7 3 4 3 3 5 7 7 10 11 12 7 7 8
Wind_Direction
195 182 181 175 187 182 162 166 156 147 124 101 72 76 95 113 138 143 146 141 138 123 114 117 116 103 79 66 94 46 53 50
195 183 178 173 178 179 165 156 156 146 137 133 125 147 155 152 137 134 137 133 122 115 113 109 99 88 124 150 125 111 60 66
187 187 183 186 180 182 167 173 164 171 168 143 144 154 126 97 99 102 117 124 124 122 117 103 102 118 98 89 124 116 65 20
205 196 197 192 188 186 184 178 173 172 151 113 83 75 66 86 114 110 112 122 126 121 120 116 121 128 137 151 138 114 126 28
204 192 196 198 202 191 189 180 175 173 160 157 166 165 165 192 153 124 121 124 122 123 119 127 128 129 122 113 110 107 111 121
198 205 202 190 185 193 184 176 182 176 178 178 171 162 144 128 113 125 124 121 125 120 125 131 131 135 124 112 116 103 93 134
209 201 183 197 185 176 180 177 190 178 180 181 185 173 159 141 131 136 137 141 137 140 146 141 138 125 124 131 131 108 126 127
187 187 189 185 191 192 182 183 191 178 185 191 198 177 165 168 163 161 161 167 173 164 138 116 125 148 135 143 111 113 161 179
194 201 194 196 194 196 193 190 194 190 195 203 185 180 182 175 174 166 173 171 165 167 167 159 163 176 150 142 144 182 183 198
200 200 196 193 190 198 198 193 198 191 197 180 179 179 180 178 180 179 159 153 163 169 154 155 166 166 152 179 179 188 189 204
203 198 190 191 198 201 194 197 200 193 181 187 190 187 177 170 163 165 165 159 148 162 168 155 153 164 171 156 191 203 194 214
203 202 197 195 190 192 195 193 176 165 166 176 179 180 176 168 172 165 166 162 170 169 162 152 166 179 177 180 198 198 203 216
207 205 200 193 201 165 190 158 166 180 172 161 173 154 158 158 163 171 170 170 169 157 155 162 176 180 191 196 201 200 204 210
197 182 199 196 107 167 144 175 186 156 148 165 156 170 173 180 176 177 171 160 152 151 153 171 176 197 222 218 210 209 213 215
207 207 163 122 145 168 169 188 171 158 171 173 185 188 187 183 176 158 151 148 151 164 176 169 193 224 237 228 218 224 222 221
169 186 161 161 172 185 189 171 165 166 174 193 213 179 183 164 147 149 145 152 166 155 145 175 236 265 247 241 240 237 228 223
42 37 45 71 205 211 196 184 178 171 179 186 168 163 143 139 118 121 105 91 91 118 97 48 315 252 267 263 248 233 224 202
41 30 17 19 24 338 217 143 125 142 146 137 129 120 115 124 126 120 115 118 109 89 16 314 272 277 270 273 263 228 213 212
29 13 9 9 7 42 60 79 99 104 95 93 100 106 109 112 101 86 46 45 90 72 276 264 266 266 267 281 281 240 222 212